This is the latest recevied weather packets stored in our database for station/object BMCB-21. If no packets are shown the sender has not sent any weather packets the latest 10 day(s).
| Time | Temp. | Humidity | Pressure | Rain* | Wind** | Luminosity | Snow |
|---|---|---|---|---|---|---|---|
| 1777725022 | 22.22° C | 66% | 1016.5 hPa | 0 mm | - | 537 W/m² | - |
| 1777718421 | 22.22° C | 61% | 1017.4 hPa | 0 mm | - | 255 W/m² | - |
| 1777714847 | 22.22° C | 62% | 1017.7 hPa | 0 mm | - | 520 W/m² | - |
| 1777713021 | 21.67° C | 63% | 1017.9 hPa | 0 mm | - | 442 W/m² | - |
| 1777707042 | 17.22° C | 75% | 1018.4 hPa | 0 mm | - | 296 W/m² | - |
| 1777704622 | 15° C | 82% | 1018.7 hPa | 0 mm | - | 197 W/m² | - |
| 1777702839 | 13.89° C | 83% | 1018.7 hPa | 0 mm | - | 78 W/m² | - |
| 1777675845 | 6.67° C | 86% | 1020.4 hPa | 0 mm | - | 0 W/m² | - |
| 1777669846 | 8.89° C | 77% | 1020.8 hPa | 0 mm | - | 0 W/m² | - |
| 1777665050 | 12.22° C | 64% | 1020.5 hPa | 0 mm | - | 0 W/m² | - |
| 1777664453 | 12.78° C | 63% | 1020.5 hPa | 0 mm | - | 0 W/m² | - |
| 1777662050 | 16.67° C | 49% | 1020.1 hPa | 0 mm | - | 0 W/m² | - |
| 1777657220 | 22.78° C | 24% | 1019.7 hPa | 0 mm | - | 31 W/m² | - |
| 1777652420 | 23.89° C | 24% | 1019.9 hPa | 0 mm | - | 238 W/m² | - |
| 1777647647 | 23.89° C | 25% | 1020.4 hPa | 0 mm | - | 394 W/m² | - |
| 1777647018 | 23.89° C | 26% | 1020.5 hPa | 0 mm | - | 411 W/m² | - |
| 1777646421 | 23.89° C | 25% | 1020.6 hPa | 0 mm | - | 428 W/m² | - |
| 1777643421 | 23.33° C | 26% | 1021 hPa | 0 mm | - | 500 W/m² | - |
| 1777638622 | 22.78° C | 23% | 1021.7 hPa | 0 mm | - | 571 W/m² | - |
| 1777635644 | 21.67° C | 24% | 1022 hPa | 0 mm | - | 592 W/m² | - |
| 1777631425 | 20.56° C | 26% | 1022.6 hPa | 0 mm | - | 568 W/m² | - |
| 1777627822 | 18.89° C | 30% | 1023.1 hPa | 0 mm | - | 490 W/m² | - |
| 1777623621 | 16.11° C | 34% | 1023.3 hPa | 0 mm | - | 405 W/m² | - |
| 1777620621 | 14.44° C | 35% | 1023.3 hPa | 0 mm | - | 320 W/m² | - |
| 1777617644 | 12.78° C | 42% | 1023.3 hPa | 0 mm | - | 224 W/m² | - |
* Rain latest hour (hover to see other rain measurements)
** Current wind speed in m/s (hover to see current wind gust speed)